Погода в Турсунзаде

Таджикистан     38˚30′39″N   68˚13′58″E
темп.,
°C
ветер,
м/с
пор.,
м/с
влажн.,
%
обл.,
%
осадки,
мм/ч
давл.,
гПа
погр.,
м
16 января, сб
сб1623:00+9˚всв33310 0.0 101726
02:00+9˚всв33280 0.0 101724
05:00+8˚всв33230 0.0 101623
08:00+8˚всв342227 0.0 101824
11:00+14˚в232025 0.0 1018149
14:00+16˚вюв121750 0.0 1016235
17:00+13˚в112542 0.0 101723
20:00+8˚зюз12380 0.0 101822
17 января, вс
вс1723:00+7˚в11420 0.0 101822
02:00+7˚всв23370 0.0 101822
05:00+6˚всв33350 0.0 101726
08:00+6˚всв33345 0.0 101724
11:00+11˚вюв23263 0.0 1015193
14:00+14˚в22200 0.0 1011425
17:00+11˚всв22290 0.0 100930
20:00+9˚всв233341 0.0 101023
18 января, пн
пн1823:00+8˚всв333170 0.0 101027
02:00+8˚всв3329100 0.0 101024
05:00+8˚всв3326100 0.0 100927
08:00+8˚всв2322100 0.0 101023
11:00+12˚вюв2320100 0.0 1011138
14:00+14˚ююз1216100 0.0 1011463
17:00+11˚всв332780 0.0 101356
20:00+9˚св342942 0.0 101447
19 января, вт
вт1923:00+8˚всв343350 0.0 101542
02:00+8˚св333592 0.0 101526
05:00+8˚св234088 0.0 101525
08:00+8˚ссв234371 0.0 101624
11:00+12˚в233974 0.0 1017219
14:00+15˚в223113 0.0 10171032
17:00+13˚в223846 0.0 101824
20:00+9˚св22491 0.0 102023
20 января, ср
ср2023:00+8˚св23481 0.0 102124
02:00+7˚св33480 0.0 102129
05:00+7˚св33450 0.0 102130
08:00+6˚св23420 0.0 102026
11:00+13˚в23270 0.0 1018304
14:00+15˚вюв12220 0.0 1015635
17:00+13˚св11280 0.0 101522
20:00+10˚св33320 0.0 101726